INMARSAT 5-F2

导读

INMARSAT 5-F2(国际移动卫星-5F2)是国际海事卫星组织第五代通信卫星星座的第二颗卫星,由美国波音公司研制,俄罗斯质子-M火箭于2015年2月1日发射升空,随后顺利进入预定轨道。卫星重6.1吨,设计寿命15年,主要覆盖美洲、大西洋区域,可为该区域提供高速移动宽带通信服务。

基本信息
目录编号:
40384
目录名称:
INMARSAT 5-F2
国际标识:
2015-005A
轨道中心:
EARTH
卫星名称:
INMARSAT 5-F2
卫星全名:
--
卫星状态:
在轨 (已飞行4149 天)
发射日期:
2015-02-01 UTC
国别 :
(Inmarsat)
星等 :
--
轨道信息
数据来源 国际轨道数据 AOE轨道数据
星历时间 2026-06-12T14:05:35+0800
12小时前
查看轨道信息
2026-06-12T13:00:00+0800
13小时前
查看轨道信息
半长轴 42164.924km 42165.121km
偏心率 0.0000517 0.0000534
轨道倾角 0.018° 0.018°
近地点辐角 266.548° 253.223°
升交点赤经 351.460° 4.861°
平近点角 38.979° 22.460°
近地点 35784.607km 35784.732km
远地点 35788.967km 35789.236km
周期 1436.107分钟 1436.117分钟
每日圈数 1.002711 1.002704
详细信息
使用方式:
暂无
2D轨道图
3D轨道图
轨道高度分析图
轨道倾角分析图
轨道综合分析图
查看轨道综合分析图